Ft Lauderdale, FL

4:18 AM EDT on April 21, 2018 (GMT -0400)
Fort Lauderdale-Hollywood International

Weather History for KFLL - December, 2011

Change the Weather History Date:

Saturday, December 10, 2011

  Actual Average Record
Temperature  
Mean Temperature 78 °F 72 °F  
Max Temperature 80 °F 79 °F 87 °F (2009)
Min Temperature 75 °F 65 °F 32 °F (1917)
Degree Days  
Heating Degree Days 0 1  
Month to date heating degree days 0 5  
Since 1 July heating degree days 0 7  
Cooling Degree Days 13 8  
Month to date cooling degree days 90 81  
Year to date cooling degree days 4682 4594  
Growing Degree Days 28 (Base 50)    
Moisture  
Dew Point 68 °F    
Average Humidity 75    
Maximum Humidity 87    
Minimum Humidity 62    
Precipitation  
Precipitation 0.02 in 0.08 in 4.73 in (2000)
Month to date precipitation 0.89 0.85  
Year to date precipitation 40.18 60.57  
Snow  
Snow 0.00 in - - ()
Month to date snowfall 0.0  
Since 1 July snowfall 0.0  
Snow Depth 0.00 in    
Sea Level Pressure  
Sea Level Pressure 30.07 in    
Wind  
Wind Speed 12 mph (East)    
Max Wind Speed 17 mph    
Max Gust Speed 22 mph    
Visibility 10 miles    
Events Rain    
T = Trace of Precipitation, MM = Missing Value Source: NWS Daily Summary

Daily Weather History Graph

Daily Weather History Graph

Search for Another Location

Airport or City:

Astronomy

Dec. 10, 2011 Rise Set
Actual Time 6:56 AM EST 5:29 PM EST
Civil Twilight 6:31 AM EST 5:54 PM EST
Nautical Twilight 6:03 AM EST 6:23 PM EST
Astronomical Twilight 5:34 AM EST 6:51 PM EST
Moon 5:43 PM EST (12/10) 6:54 AM EST (12/10)
Length of Visible Light 11h 23m
Length of Day
10h 32m
Full, 100% of the Moon is Illuminated
Dec 10
Full
Dec 17
Last Quarter
Dec 24
New
Jan 1
First Quarter
Jan 9
Full

Hourly Weather History & Observations

Time (EST) Temp. Heat Index Dew Point Humidity Pressure Visibility Wind Dir Wind Speed Gust Speed Precip Events Conditions
12:53 AM 75.9 °F - 71.1 °F 85% 30.08 in 10.0 mi East 11.5 mph - N/A   Mostly Cloudy
1:53 AM 75.9 °F - 71.1 °F 85% 30.06 in 10.0 mi ENE 9.2 mph - N/A   Mostly Cloudy
2:53 AM 75.9 °F - 72.0 °F 87% 30.04 in 9.0 mi East 12.7 mph - 0.00 in Rain Light Rain
3:53 AM 75.0 °F - 72.0 °F 90% 30.04 in 9.0 mi East 15.0 mph - N/A Rain Light Rain
4:53 AM 75.0 °F - 70.0 °F 84% 30.04 in 10.0 mi ESE 10.4 mph - 0.00 in   Mostly Cloudy
5:53 AM 75.0 °F - 69.1 °F 82% 30.05 in 10.0 mi East 11.5 mph - N/A   Partly Cloudy
6:53 AM 75.0 °F - 68.0 °F 79% 30.06 in 10.0 mi ESE 13.8 mph - N/A   Mostly Cloudy
7:53 AM 77.0 °F - 69.1 °F 76% 30.07 in 10.0 mi East 10.4 mph - N/A   Overcast
8:53 AM 77.0 °F - 68.0 °F 74% 30.10 in 10.0 mi East 10.4 mph - N/A   Overcast
9:53 AM 78.1 °F - 66.9 °F 68% 30.12 in 10.0 mi East 12.7 mph - N/A   Overcast
10:53 AM 78.1 °F - 68.0 °F 71% 30.12 in 10.0 mi East 11.5 mph - N/A   Overcast
11:53 AM 78.1 °F - 68.0 °F 71% 30.09 in 10.0 mi East 13.8 mph - N/A   Mostly Cloudy
12:53 PM 80.1 °F 82.7 °F 68.0 °F 67% 30.07 in 10.0 mi East 12.7 mph - N/A   Scattered Clouds
1:53 PM 79.0 °F - 66.9 °F 66% 30.05 in 10.0 mi East 10.4 mph - N/A   Scattered Clouds
2:53 PM 80.1 °F 82.3 °F 66.9 °F 64% 30.05 in 10.0 mi East 12.7 mph - N/A   Scattered Clouds
3:53 PM 79.0 °F - 66.9 °F 66% 30.05 in 10.0 mi East 11.5 mph - N/A   Partly Cloudy
4:53 PM 78.1 °F - 66.9 °F 68% 30.06 in 10.0 mi ENE 12.7 mph - N/A   Mostly Cloudy
5:53 PM 77.0 °F - 66.9 °F 71% 30.07 in 10.0 mi ENE 9.2 mph - N/A   Mostly Cloudy
6:53 PM 77.0 °F - 66.0 °F 69% 30.07 in 10.0 mi East 11.5 mph - N/A   Scattered Clouds
7:53 PM 77.0 °F - 66.9 °F 71% 30.09 in 10.0 mi ENE 10.4 mph - N/A   Scattered Clouds
8:53 PM 75.0 °F - 70.0 °F 84% 30.09 in 9.0 mi East 10.4 mph - N/A   Scattered Clouds
9:53 PM 75.9 °F - 66.9 °F 74% 30.10 in 10.0 mi East 13.8 mph - 0.00 in   Scattered Clouds
10:53 PM 75.9 °F - 66.9 °F 74% 30.10 in 10.0 mi ENE 11.5 mph 19.6 mph N/A   Scattered Clouds
11:53 PM 75.9 °F - 66.0 °F 71% 30.09 in 10.0 mi East 16.1 mph - N/A   Scattered Clouds